默认 日期 大小 文件数 浏览量 最新下载 xml
buddhist磁力链接相关资源由用户搜索指令自动获取,结果来源于网络,本站不存储任何资料,亦不承担任何责任,请于24小时内删除,搜索到390个磁力,用时0ms。
    {"01. Hanshan Temple (Jin Long UEN And Song Huei LIOU).mp3": 56674570, "02. Bow To Avalokitesvara Bodhisattva(UEN, Jin Long).mp3": 120235713}
创建时间: 2018-12-22 20:20:08 大小:168.71 MB 文件数量:2 热度:5 最近下载:2025-04-10 12:44:02
    {"Torrent_downloaded_from_Demonoid_-_www.demonoid.pw_.txt": 59, "Richard Shankman - The Art and Skill of Buddhist Meditation.jpg": 178009, "Richard Shankman - The Art and Skill of Buddhist Meditation.epub": 341076}
创建时间: 2018-12-23 02:39:12 大小:506.98 KB 文件数量:3 热度:9 最近下载:2025-03-28 19:57:02
    ... , "菩提幽魂.The.Buddhist.Spell.1993.LDVDRip.HALFCD.2Audios ... , "菩提幽魂.The.Buddhist.Spell.1993.LDVDRip.HALFCD.2Audios ...
创建时间: 2018-12-23 02:54:37 大小:600.65 MB 文件数量:4 热度:62 最近下载:2025-10-17 19:36:02
    ... Vara.flac": 171613908, "Buddhist Chants for spiritualy and straigth ... Song Huei Liou - Buddhist Chants for spiritualy and straigth ... Creed.flac": 157378985, "Buddhist Chants for spiritualy and straigth ... Jewel.flac": 215767603, "Buddhist Chants for spiritualy and ...
创建时间: 2018-12-23 03:19:29 大小:1008.33 MB 文件数量:19 热度:5 最近下载:2025-02-18 21:53:28
    {"Jeffrey Hopkins.txt": 927, "Jeffrey Hopkins 20070622 - .mp3": 46451355, "JeffreyHopkins 20070624am - .mp3": 44724139, "JeffreyHopkins 20070623 pm - .mp3": 48948034, "JeffreyHopkins 20070624 pm - .mp3": 45644067, "Jeffrey Hopkins 20070623 am - .mp3": ...
创建时间: 2018-12-23 22:57:49 大小:223.73 MB 文件数量:6 热度:8 最近下载:2025-01-19 17:59:08
    {"Tiratana": {"Front.jpg": 870177, "img001.jpg": 1485681, "Various - Tiratana.cue": 398, "Various - Tiratana.log": 1462, "Various - Tiratana.flac": 289157115}, "Green Tara": {"Front.jpg": 902536, "img001.jpg": 1888022, "Various - The Green Tara.cue": 448, ...
创建时间: 2018-12-23 23:19:42 大小:1.6 GB 文件数量:25 热度:5 最近下载:2022-04-23 06:18:21
    {"Buddhist chant 2.log": 1647, "Monks of the Gyuto monastery - Buddhist chant 2.cue": 325, "Monks of the Gyuto monastery - Buddhist chant 2.flac": 307206839}
创建时间: 2018-12-24 03:03:51 大小:292.98 MB 文件数量:3 热度:5 最近下载:2025-01-09 02:38:02
    ... 11.mp3": 20837098}, "Osho Discourses - Buddhist Zen Tao Masters.txt": 3521 ...
创建时间: 2018-12-24 17:17:27 大小:24.97 GB 文件数量:1552 热度:23 最近下载:2025-10-17 19:35:04
    {"2000 - Lama Channo": {"Cover.jpg": 185845, "01 Lama Channo I.mp3": 5808438, "07 Lama Channo II.mp3": 8688801, "09 Quiet and Anger.mp3": 5591536, "02 Vajra Guru Mantra.mp3": 8288424, "04 Om Mani Padme Hum.mp3": 8467303, "08 The Story of Missing.mp3": ...
创建时间: 2018-12-24 18:42:15 大小:181.71 MB 文件数量:23 热度:8 最近下载:2023-04-14 10:50:07
    {"info.txt": 2153, "0420410.jpg": 27880, "Torrent downloaded from demonoid.pw.txt": 46, "The Buddhist World of Southeast Asia.pdf": 2601902}
创建时间: 2018-12-24 20:30:55 大小:2.51 MB 文件数量:4 热度:11 最近下载:2025-04-01 07:43:02
    {"back.jpg": 463805, "info.txt": 3861, "front.jpg": 568160, "15_track15.mp3": 7457435, "16_by nuns.mp3": 5600652, "23_track23.mp3": 21859264, "11_petition to dramar.mp3": 3043786, "01_in praise of genyen.mp3": 13615019, "06_invitation to gonpo.mp3": ...
创建时间: 2018-12-24 21:12:14 大小:161.49 MB 文件数量:27 热度:13 最近下载:2025-08-02 08:17:03
    {"Realizing Awakened Consciousness.jpg": 191737, "Realizing Awakened Consciousness.pdf": 4491437, "Realizing Awakened Consciousness.epub": 19772152, "Torrent_downloaded_from_Demonoid_-_www.demonoid.pw_.txt": 59}
创建时间: 2018-12-25 02:32:10 大小:23.32 MB 文件数量:4 热度:9 最近下载:2024-12-05 10:38:02
    {"description.txt": 1138, "The Experience of Samadhi.jpeg": 15536, "The Experience of Samadhi An In-depth Exploration of Buddhist Meditation By Richard Shankman.pdf": 31025302}
创建时间: 2018-12-26 19:46:18 大小:29.6 MB 文件数量:3 热度:10 最近下载:2025-09-26 07:58:01
    {"Purity": {"Back.jpg": 1275349, "Back2.jpg": 966476, "Front.jpg": 1115824, "Cover3.jpg": 2617991, "Purity.CUE": 1125, "Purity.LOG": 1860, "Wang Shan Ti & Hsun Wang - Purity.m3u": 606, "01 - Purity - Wang Shan Ti & Hsun Wang.ape": 97814334, "02 - Buddha ...
创建时间: 2018-12-28 02:51:38 大小:1.23 GB 文件数量:34 热度:7 最近下载:2025-10-17 19:35:03
    {"seven.wonders.of.the.buddhist.world.hdtv.xvid-barge.avi": 733962240, "seven.wonders.of.the.buddhist.world.hdtv.xvid-barge.nfo": 970}
创建时间: 2018-12-28 17:04:15 大小:699.96 MB 文件数量:2 热度:9 最近下载:2025-10-17 19:36:03
    ... Great mercy mantra.mp3": 36095124}, "Buddhist chants": {"Cover.jpg": 29061, "1 ... , "4 Track04.mp3": 24294924}, "The Buddhist Peace Songs": {"Cover.jpg": 173336 ...
创建时间: 2018-12-29 03:08:26 大小:537.81 MB 文件数量:29 热度:5 最近下载:2025-10-17 19:35:04
    ... Sacred Dance - Tibetan Buddhist Monks from the Drepung Loseling ... Sacred Dance - Tibetan Buddhist Monks from the Drepung Loseling ... Sacred Dance - Tibetan Buddhist Monks from the Drepung Loseling ... Sacred Dance - Tibetan Buddhist Monks from the Drepung Loseling ...
创建时间: 2018-12-29 03:29:44 大小:255.63 MB 文件数量:19 热度:8 最近下载:2025-01-07 06:47:02
    {"Trance Buddhist psychology jack kornfield _What U Hear_ (Creative SB X-Fi) 2010-08-10 21-59-33.wma": 41860877}
创建时间: 2018-12-29 05:00:40 大小:39.92 MB 文件数量:1 热度:4 最近下载:2025-10-17 19:37:03
    ... pdf": 12664168, "BodhisattvaBhumi.pdf": 23564060, "Buddhist Studies.pdf": 2267159, "Gandharva Tantra ... of the Dead.pdf": 442419, "Buddhist Sutra Collection.pdf": 877476, "Guhyasamaja ... Sutra - Unknown.pdf": 54781, "Popular Buddhist Texts from Nepal.pdf": 3701236 ...
创建时间: 2018-12-29 22:41:46 大小:1.02 GB 文件数量:181 热度:8 最近下载:2025-10-15 03:38:01
    {"02 Revelation.wma": 6645126, "01 The Universe.wma": 5844346, "05 Shomyo - Jusan.wma": 2659142, "07 Hannya-Shingyo.wma": 3077462, "11 Harmony of the Soul.wma": 4744776, "12 The Birth from Chaos.wma": 4613306, "08 Nothing But Everything.wma": 7451910, "09 ...
创建时间: 2018-12-30 07:45:30 大小:54.39 MB 文件数量:12 热度:8 最近下载:2025-10-17 23:29:04